OneWeb SL0186

operational
NORAD ID: 48229 Int'l Des: 2021-031 Owner: ONEWEBN Country: UK Constellation: oneweb
LEOCIRCULARPOLARONEWEB_TYPE

About OneWeb SL0186

Description loading...

Live Position

Loading 3D Globe...

Upcoming Passes

Altitude History

Altitude vs Time

uPlot chart will show altitude changes over time

Two-Line Element Set

1 48229U 21031V 25257.49464413 -.00000147 00000-0 -43128-3 0 9993
2 48229 87.9093 344.5742 0001898 103.3511 256.7830 13.14503990212160
Epoch: Sep 14, 2025 • Age: 21 hours

Current Status

Altitude 1209.4 km
Velocity 7.25 km/s
Sub-Earth Point -5.57°S, 36.43°E
Launch Date Apr 25, 2021
Age 4.3 years
Type internet

Technical Details

Classification Payload
Mass 148.00 kg
Dry Mass 140.00 kg
Total Mass 148.00 kg
Length 1.30 m
Diameter 1.00 m
Span 5.00 m
Shape Trapezoid+2 pan
Manufacturer ONEWUS
Bus Type ARROW
Phase Status In Orbit
Owner/State ONEWEBN/UK

Large Constellations

Loading constellations...